• In Schweiz
  • Länderverzeichnis
  • Für 7 Tage
  • Wassertemperatur
  • Satellitenkarten
  • Wetterkarte
  • Widgets
  • user-avatar
    Anmelden

    Stündliche Wetter Melbourne

    Heute, 18 Juni, Montag

    Zeit Temperatur Niederschläge Wind Luftdruck Luftfeuchtigkeit
    00:00 +8°C° 0,3 mm 4 m/S 765 mmHg 91%
    01:00 +9°C° 0,3 mm 5 m/S 765 mmHg 91%
    02:00 +8°C° 0,1 mm 4 m/S 765 mmHg 91%
    03:00 +8°C° 0,1 mm 4 m/S 766 mmHg 91%
    04:00 +9°C° 0 mm 3 m/S 766 mmHg 92%
    05:00 +9°C° 0,1 mm 3 m/S 766 mmHg 92%
    06:00 +9°C° 0,1 mm 3 m/S 767 mmHg 92%
    07:00 +9°C° 0,1 mm 3 m/S 767 mmHg 92%
    08:00 +10°C° 0,1 mm 3 m/S 767 mmHg 90%
    09:00 +10°C° 0,1 mm 3 m/S 768 mmHg 89%
    10:00 +10°C° 0 mm 3 m/S 768 mmHg 86%
    11:00 +11°C° 0,1 mm 3 m/S 768 mmHg 84%
    12:00 +11°C° 0,1 mm 3 m/S 768 mmHg 82%
    13:00 +12°C° 0,1 mm 4 m/S 768 mmHg 79%
    14:00 +11°C° 0 mm 3 m/S 768 mmHg 79%
    15:00 +11°C° 0 mm 3 m/S 768 mmHg 79%
    16:00 +12°C° 0 mm 2 m/S 768 mmHg 79%
    17:00 +10°C° 0 mm 2 m/S 768 mmHg 81%
    18:00 +10°C° 0 mm 2 m/S 769 mmHg 82%
    19:00 +9°C° 0 mm 2 m/S 769 mmHg 83%
    20:00 +9°C° 0 mm 2 m/S 769 mmHg 84%
    21:00 +8°C° 0 mm 2 m/S 769 mmHg 85%
    22:00 +8°C° 0 mm 2 m/S 769 mmHg 86%
    23:00 +7°C° 0 mm 2 m/S 769 mmHg 87%

    Morgen, 19 Juni, Dienstag

    Zeit Temperatur Niederschläge Wind Luftdruck Luftfeuchtigkeit
    00:00 +7°C° 0 mm 2 m/S 769 mmHg 88%
    01:00 +6°C° 0 mm 2 m/S 769 mmHg 88%
    02:00 +7°C° 0 mm 1 m/S 769 mmHg 89%
    03:00 +7°C° 0 mm 1 m/S 769 mmHg 90%
    04:00 +6°C° 0 mm 1 m/S 769 mmHg 91%
    05:00 +6°C° 0 mm 1 m/S 770 mmHg 91%
    06:00 +6°C° 0 mm 1 m/S 770 mmHg 92%
    07:00 +6°C° 0 mm 1 m/S 770 mmHg 93%
    08:00 +8°C° 0 mm 1 m/S 770 mmHg 88%
    09:00 +9°C° 0 mm 1 m/S 770 mmHg 83%
    10:00 +11°C° 0 mm 1 m/S 770 mmHg 78%
    11:00 +12°C° 0 mm 1 m/S 770 mmHg 71%
    12:00 +14°C° 0 mm 1 m/S 769 mmHg 65%
    13:00 +15°C° 0 mm 1 m/S 769 mmHg 59%
    14:00 +15°C° 0 mm 1 m/S 768 mmHg 61%
    15:00 +14°C° 0 mm 1 m/S 768 mmHg 63%
    16:00 +14°C° 0 mm 1 m/S 768 mmHg 66%
    17:00 +13°C° 0 mm 1 m/S 768 mmHg 71%
    18:00 +10°C° 0 mm 2 m/S 768 mmHg 76%
    19:00 +9°C° 0 mm 2 m/S 769 mmHg 81%
    20:00 +8°C° 0 mm 2 m/S 769 mmHg 82%
    21:00 +8°C° 0 mm 2 m/S 769 mmHg 82%
    22:00 +8°C° 0 mm 2 m/S 769 mmHg 82%
    23:00 +8°C° 0 mm 2 m/S 769 mmHg 82%

    übermorgen, 20 Juni, Mittwoch

    Zeit Temperatur Niederschläge Wind Luftdruck Luftfeuchtigkeit
    00:00 +8°C° 0 mm 2 m/S 769 mmHg 81%
    01:00 +8°C° 0 mm 2 m/S 769 mmHg 80%
    02:00 +8°C° 0 mm 2 m/S 768 mmHg 80%
    03:00 +8°C° 0 mm 2 m/S 768 mmHg 80%
    04:00 +8°C° 0 mm 2 m/S 768 mmHg 80%
    05:00 +7°C° 0 mm 2 m/S 768 mmHg 80%
    06:00 +7°C° 0 mm 2 m/S 769 mmHg 81%
    07:00 +7°C° 0 mm 3 m/S 769 mmHg 81%
    08:00 +8°C° 0 mm 3 m/S 769 mmHg 78%
    09:00 +9°C° 0 mm 3 m/S 769 mmHg 75%
    10:00 +10°C° 0 mm 3 m/S 769 mmHg 72%
    11:00 +11°C° 0 mm 4 m/S 769 mmHg 68%
    12:00 +12°C° 0 mm 4 m/S 768 mmHg 64%
    13:00 +13°C° 0 mm 5 m/S 768 mmHg 60%
    14:00 +13°C° 0 mm 4 m/S 768 mmHg 62%
    15:00 +12°C° 0 mm 4 m/S 768 mmHg 64%
    16:00 +12°C° 0 mm 4 m/S 767 mmHg 66%
    17:00 +11°C° 0 mm 4 m/S 768 mmHg 69%
    18:00 +10°C° 0 mm 4 m/S 768 mmHg 73%
    19:00 +8°C° 0 mm 4 m/S 768 mmHg 77%
    20:00 +9°C° 0 mm 3 m/S 769 mmHg 79%
    21:00 +8°C° 0 mm 3 m/S 769 mmHg 81%
    22:00 +8°C° 0 mm 3 m/S 769 mmHg 83%
    23:00 +7°C° 0 mm 2 m/S 769 mmHg 83%

    21 Juni, Donnerstag

    Zeit Temperatur Niederschläge Wind Luftdruck Luftfeuchtigkeit
    00:00 +7°C° 0 mm 2 m/S 769 mmHg 84%
    01:00 +7°C° 0 mm 2 m/S 769 mmHg 85%
    02:00 +7°C° 0 mm 2 m/S 769 mmHg 84%
    03:00 +7°C° 0 mm 2 m/S 769 mmHg 83%
    04:00 +6°C° 0 mm 2 m/S 769 mmHg 83%
    05:00 +6°C° 0 mm 2 m/S 769 mmHg 83%
    06:00 +6°C° 0 mm 2 m/S 770 mmHg 83%
    07:00 +6°C° 0 mm 2 m/S 770 mmHg 83%
    08:00 +7°C° 0 mm 2 m/S 770 mmHg 78%
    09:00 +9°C° 0 mm 2 m/S 770 mmHg 73%
    10:00 +11°C° 0 mm 1 m/S 770 mmHg 68%
    11:00 +13°C° 0 mm 1 m/S 770 mmHg 63%
    12:00 +14°C° 0 mm 1 m/S 770 mmHg 59%
    13:00 +15°C° 0 mm 1 m/S 769 mmHg 55%
    14:00 +15°C° 0 mm 1 m/S 769 mmHg 58%
    15:00 +15°C° 0 mm 1 m/S 769 mmHg 61%
    16:00 +13°C° 0 mm 0 m/S 769 mmHg 64%
    17:00 +13°C° 0 mm 1 m/S 769 mmHg 70%
    18:00 +11°C° 0 mm 1 m/S 770 mmHg 76%
    19:00 +9°C° 0 mm 1 m/S 770 mmHg 83%
    20:00 +9°C° 0 mm 1 m/S 770 mmHg 84%
    21:00 +8°C° 0 mm 1 m/S 770 mmHg 85%
    22:00 +8°C° 0 mm 1 m/S 771 mmHg 87%
    23:00 +8°C° 0 mm 1 m/S 770 mmHg 87%

    22 Juni, Freitag

    Zeit Temperatur Niederschläge Wind Luftdruck Luftfeuchtigkeit
    00:00 +8°C° 0 mm 1 m/S 770 mmHg 87%
    01:00 +7°C° 0 mm 2 m/S 770 mmHg 88%
    02:00 +6°C° 0 mm 2 m/S 770 mmHg 87%
    03:00 +6°C° 0 mm 2 m/S 770 mmHg 87%
    04:00 +6°C° 0 mm 2 m/S 770 mmHg 87%
    05:00 +6°C° 0 mm 2 m/S 770 mmHg 86%
    06:00 +6°C° 0 mm 2 m/S 770 mmHg 86%
    07:00 +6°C° 0 mm 2 m/S 770 mmHg 85%
    08:00 +7°C° 0 mm 2 m/S 771 mmHg 79%
    09:00 +9°C° 0 mm 2 m/S 771 mmHg 73%
    10:00 +10°C° 0 mm 2 m/S 771 mmHg 67%
    11:00 +13°C° 0 mm 2 m/S 770 mmHg 62%
    12:00 +14°C° 0 mm 2 m/S 770 mmHg 57%
    13:00 +16°C° 0 mm 1 m/S 770 mmHg 52%
    14:00 +15°C° 0 mm 1 m/S 769 mmHg 55%
    15:00 +15°C° 0 mm 1 m/S 769 mmHg 59%
    16:00 +15°C° 0 mm 1 m/S 769 mmHg 62%
    17:00 +13°C° 0 mm 1 m/S 769 mmHg 68%
    18:00 +12°C° 0 mm 1 m/S 770 mmHg 73%
    19:00 +9°C° 0 mm 2 m/S 770 mmHg 79%
    20:00 +9°C° 0 mm 2 m/S 770 mmHg 80%
    21:00 +8°C° 0 mm 2 m/S 770 mmHg 82%
    22:00 +8°C° 0 mm 2 m/S 770 mmHg 83%
    23:00 +8°C° 0 mm 2 m/S 770 mmHg 83%

    23 Juni, Samstag

    Zeit Temperatur Niederschläge Wind Luftdruck Luftfeuchtigkeit
    00:00 +8°C° 0 mm 2 m/S 770 mmHg 83%
    01:00 +8°C° 0 mm 2 m/S 770 mmHg 83%
    02:00 +7°C° 0 mm 2 m/S 770 mmHg 83%
    03:00 +7°C° 0 mm 2 m/S 769 mmHg 82%
    04:00 +7°C° 0 mm 2 m/S 769 mmHg 82%
    05:00 +7°C° 0 mm 2 m/S 769 mmHg 82%
    06:00 +7°C° 0 mm 2 m/S 770 mmHg 81%
    07:00 +7°C° 0 mm 3 m/S 770 mmHg 80%
    08:00 +8°C° 0 mm 3 m/S 770 mmHg 76%
    09:00 +10°C° 0 mm 3 m/S 770 mmHg 71%
    10:00 +11°C° 0 mm 3 m/S 770 mmHg 66%
    11:00 +12°C° 0 mm 3 m/S 769 mmHg 61%
    12:00 +14°C° 0 mm 3 m/S 769 mmHg 57%
    13:00 +16°C° 0 mm 3 m/S 768 mmHg 53%
    14:00 +16°C° 0 mm 3 m/S 768 mmHg 56%
    15:00 +16°C° 0 mm 3 m/S 767 mmHg 58%
    16:00 +14°C° 0 mm 3 m/S 767 mmHg 60%
    17:00 +13°C° 0 mm 3 m/S 767 mmHg 65%
    18:00 +12°C° 0 mm 3 m/S 768 mmHg 70%
    19:00 +11°C° 0 mm 3 m/S 768 mmHg 74%
    20:00 +11°C° 0,1 mm 3 m/S 768 mmHg 76%
    21:00 +11°C° 0,1 mm 3 m/S 768 mmHg 78%
    22:00 +11°C° 0,1 mm 3 m/S 769 mmHg 80%
    23:00 +11°C° 0,1 mm 3 m/S 769 mmHg 83%
    Mehr zeigen